User: anonymous   Login
Location: *
(50.3440°N, 18.6237°E)
Time: 02:33:19
(UTC+00:00)
Language:

Cosmos 1633 Rocket - Orbit

View from above orbital plane
View from above orbital plane
View from above satellite
View from above satellite

Ground track
Ground track

The orbit data is extracted from the following two-line orbital elements,

1 15593U 85020B   21060.11404056  .00000079  00000-0  65856-5 0  9999
2 15593  82.5349  76.5040 0010155 248.1440 111.8696 14.84418157923901
Epoch (UTC): 01 March 2021 02:44:13
Eccentricity: 0.0010155
inclination: 82.5349°
perigee height: 608 km
apogee height: 622 km
right ascension of ascending node: 76.5040°
argument of perigee: 248.1440°
revolutions per day: 14.84418157
mean anomaly at epoch: 111.8696°
orbit number at epoch: 92390

The dashed part of the orbit path shows where the satellite is in the earth's shadow,  

DLR